Time,TemperatureF,DewpointF,PressureIn,WindDirection,WindDirectionDegrees,WindSpeedMPH,WindSpeedGustMPH,Humidity,HourlyPrecipIn,Conditions,Clouds,dailyrainin,SoftwareType,DateUTC
2013-01-26 00:21:00,51.0,50.0,29.87,North,0,0.0,1.0,95,0.04,,,-99.99,,2013-01-26 08:21:00,
2013-01-26 00:31:00,51.0,50.0,29.87,North,0,0.0,1.0,95,0.04,,,-99.99,,2013-01-26 08:31:00,
2013-01-26 00:42:00,51.0,50.0,29.87,North,0,0.0,1.0,95,0.04,,,-99.99,,2013-01-26 08:42:00,
2013-01-26 00:53:00,51.0,50.0,29.87,North,0,0.0,1.0,95,0.04,,,-99.99,,2013-01-26 08:53:00,
2013-01-26 01:22:00,51.0,50.0,29.87,North,-999,0.0,0.0,95,0.07,,,-99.99,,2013-01-26 09:22:00,
2013-01-26 01:31:00,51.0,50.0,29.87,North,-999,0.0,0.0,95,0.07,,,-99.99,,2013-01-26 09:31:00,
2013-01-26 01:42:00,51.0,50.0,29.87,North,-999,0.0,0.0,95,0.07,,,-99.99,,2013-01-26 09:42:00,
2013-01-26 01:51:00,51.0,50.0,29.87,North,-999,0.0,0.0,95,0.07,,,-99.99,,2013-01-26 09:51:00,
2013-01-26 03:22:00,50.0,49.0,29.80,North,0,0.0,7.0,95,0.05,,,-99.99,,2013-01-26 11:22:00,
2013-01-26 03:32:00,50.0,49.0,29.80,North,0,0.0,7.0,95,0.05,,,-99.99,,2013-01-26 11:32:00,
2013-01-26 03:42:00,50.0,49.0,29.80,North,0,0.0,7.0,95,0.05,,,-99.99,,2013-01-26 11:42:00,
2013-01-26 03:52:00,50.0,49.0,29.80,North,0,0.0,7.0,95,0.05,,,-99.99,,2013-01-26 11:52:00,
2013-01-26 04:22:00,50.0,49.0,29.82,West,270,2.0,10.0,95,0.00,,,-99.99,,2013-01-26 12:22:00,
2013-01-26 04:33:00,50.0,49.0,29.82,West,270,2.0,10.0,95,0.00,,,-99.99,,2013-01-26 12:33:00,
2013-01-26 04:42:00,50.0,49.0,29.82,West,270,2.0,10.0,95,0.00,,,-99.99,,2013-01-26 12:42:00,
2013-01-26 04:52:00,50.0,49.0,29.82,West,270,2.0,10.0,95,0.00,,,-99.99,,2013-01-26 12:52:00,
2013-01-26 05:22:00,50.0,49.0,29.82,North,0,0.0,7.0,95,0.02,,,-99.99,,2013-01-26 13:22:00,
2013-01-26 05:32:00,50.0,49.0,29.82,North,0,0.0,7.0,95,0.02,,,-99.99,,2013-01-26 13:32:00,
2013-01-26 05:42:00,50.0,49.0,29.82,North,0,0.0,7.0,95,0.02,,,-99.99,,2013-01-26 13:42:00,
2013-01-26 05:52:00,50.0,49.0,29.82,North,0,0.0,7.0,95,0.02,,,-99.99,,2013-01-26 13:52:00,
2013-01-26 06:21:00,50.0,49.0,29.83,North,0,0.0,4.0,96,0.01,,,-99.99,,2013-01-26 14:21:00,
2013-01-26 06:32:00,50.0,49.0,29.83,North,0,0.0,4.0,96,0.01,,,-99.99,,2013-01-26 14:32:00,
2013-01-26 06:42:00,50.0,49.0,29.83,North,0,0.0,4.0,96,0.01,,,-99.99,,2013-01-26 14:42:00,
2013-01-26 06:52:00,50.0,49.0,29.83,North,0,0.0,4.0,96,0.01,,,-99.99,,2013-01-26 14:52:00,
2013-01-26 07:22:00,50.0,49.0,29.84,North,-999,0.0,0.0,96,0.00,,,-99.99,,2013-01-26 15:22:00,
2013-01-26 07:32:00,50.0,49.0,29.84,North,-999,0.0,0.0,96,0.00,,,-99.99,,2013-01-26 15:32:00,
2013-01-26 07:43:00,50.0,49.0,29.84,North,-999,0.0,0.0,96,0.00,,,-99.99,,2013-01-26 15:43:00,
2013-01-26 07:52:00,50.0,49.0,29.84,North,-999,0.0,0.0,96,0.00,,,-99.99,,2013-01-26 15:52:00,
2013-01-26 08:22:00,50.0,49.0,29.85,North,-999,0.0,0.0,96,0.00,,,-99.99,,2013-01-26 16:22:00,
2013-01-26 08:32:00,50.0,49.0,29.85,North,-999,0.0,0.0,96,0.00,,,-99.99,,2013-01-26 16:32:00,
2013-01-26 08:42:00,50.0,49.0,29.85,North,-999,0.0,0.0,96,0.00,,,-99.99,,2013-01-26 16:42:00,
2013-01-26 08:52:00,50.0,49.0,29.85,North,-999,0.0,0.0,96,0.00,,,-99.99,,2013-01-26 16:52:00,
2013-01-26 09:22:00,51.0,50.0,29.86,North,0,0.0,3.0,96,0.00,,,-99.99,,2013-01-26 17:22:00,
2013-01-26 09:32:00,51.0,50.0,29.86,North,0,0.0,3.0,96,0.00,,,-99.99,,2013-01-26 17:32:00,
2013-01-26 09:42:00,51.0,50.0,29.86,North,0,0.0,3.0,96,0.00,,,-99.99,,2013-01-26 17:42:00,
2013-01-26 09:52:00,51.0,50.0,29.86,North,0,0.0,3.0,96,0.00,,,-99.99,,2013-01-26 17:52:00,
2013-01-26 10:22:00,52.0,51.0,29.88,WNW,290,2.0,4.0,96,0.00,,,-99.99,,2013-01-26 18:22:00,
2013-01-26 10:32:00,52.0,51.0,29.88,WNW,290,2.0,4.0,96,0.00,,,-99.99,,2013-01-26 18:32:00,
2013-01-26 10:42:00,52.0,51.0,29.88,WNW,290,2.0,4.0,96,0.00,,,-99.99,,2013-01-26 18:42:00,
2013-01-26 10:52:00,52.0,51.0,29.88,WNW,290,2.0,4.0,96,0.00,,,-99.99,,2013-01-26 18:52:00,
2013-01-26 11:22:00,53.0,51.0,29.86,North,0,0.0,6.0,94,0.00,,,-99.99,,2013-01-26 19:22:00,
2013-01-26 11:32:00,53.0,51.0,29.86,North,0,0.0,6.0,94,0.00,,,-99.99,,2013-01-26 19:32:00,
2013-01-26 11:42:00,53.0,51.0,29.86,North,0,0.0,6.0,94,0.00,,,-99.99,,2013-01-26 19:42:00,
2013-01-26 11:52:00,53.0,51.0,29.86,North,0,0.0,6.0,94,0.00,,,-99.99,,2013-01-26 19:52:00,
2013-01-26 12:21:00,53.0,51.0,29.85,North,0,0.0,7.0,94,0.00,,,-99.99,,2013-01-26 20:21:00,
2013-01-26 12:32:00,53.0,51.0,29.85,North,0,0.0,7.0,94,0.00,,,-99.99,,2013-01-26 20:32:00,
2013-01-26 12:42:00,53.0,51.0,29.85,North,0,0.0,7.0,94,0.00,,,-99.99,,2013-01-26 20:42:00,
2013-01-26 12:52:00,53.0,51.0,29.85,North,0,0.0,7.0,94,0.00,,,-99.99,,2013-01-26 20:52:00,
2013-01-26 13:22:00,52.0,51.0,29.83,WNW,300,2.0,11.0,95,0.13,,,-99.99,,2013-01-26 21:22:00,
2013-01-26 13:32:00,52.0,51.0,29.83,WNW,300,2.0,11.0,95,0.13,,,-99.99,,2013-01-26 21:32:00,
2013-01-26 13:42:00,52.0,51.0,29.83,WNW,300,2.0,11.0,95,0.13,,,-99.99,,2013-01-26 21:42:00,
2013-01-26 13:51:00,52.0,51.0,29.83,WNW,300,2.0,11.0,95,0.13,,,-99.99,,2013-01-26 21:51:00,
2013-01-26 14:21:00,52.0,51.0,29.83,WNW,290,2.0,8.0,95,0.08,,,-99.99,,2013-01-26 22:21:00,
2013-01-26 14:31:00,52.0,51.0,29.83,WNW,290,2.0,8.0,95,0.08,,,-99.99,,2013-01-26 22:31:00,
2013-01-26 14:42:00,52.0,51.0,29.83,WNW,290,2.0,8.0,95,0.08,,,-99.99,,2013-01-26 22:42:00,
2013-01-26 14:51:00,52.0,51.0,29.83,WNW,290,2.0,8.0,95,0.08,,,-99.99,,2013-01-26 22:51:00,
2013-01-26 15:21:00,52.0,51.0,29.84,WNW,290,6.0,10.0,95,0.07,,,-99.99,,2013-01-26 23:21:00,
2013-01-26 15:32:00,52.0,51.0,29.84,WNW,290,6.0,10.0,95,0.07,,,-99.99,,2013-01-26 23:32:00,
2013-01-26 15:41:00,52.0,51.0,29.84,WNW,290,6.0,10.0,95,0.07,,,-99.99,,2013-01-26 23:41:00,
2013-01-26 15:52:00,52.0,51.0,29.84,WNW,290,6.0,10.0,95,0.07,,,-99.99,,2013-01-26 23:52:00,
2013-01-26 16:21:00,51.0,50.0,29.84,West,280,11.0,14.0,96,0.05,,,-99.99,,2013-01-27 00:21:00,
2013-01-26 16:32:00,51.0,50.0,29.84,West,280,11.0,14.0,96,0.05,,,-99.99,,2013-01-27 00:32:00,
2013-01-26 16:41:00,51.0,50.0,29.84,West,280,11.0,14.0,96,0.05,,,-99.99,,2013-01-27 00:41:00,
2013-01-26 16:51:00,51.0,50.0,29.84,West,280,11.0,14.0,96,0.05,,,-99.99,,2013-01-27 00:51:00,
2013-01-26 17:22:00,50.0,49.0,29.85,West,270,6.0,9.0,96,0.00,,,-99.99,,2013-01-27 01:22:00,
2013-01-26 17:32:00,50.0,49.0,29.85,West,270,6.0,9.0,96,0.00,,,-99.99,,2013-01-27 01:32:00,
2013-01-26 17:41:00,50.0,49.0,29.85,West,270,6.0,9.0,96,0.00,,,-99.99,,2013-01-27 01:41:00,
2013-01-26 17:51:00,50.0,49.0,29.85,West,270,6.0,9.0,96,0.00,,,-99.99,,2013-01-27 01:51:00,
2013-01-26 18:21:00,50.0,49.0,29.88,North,0,0.0,8.0,96,0.00,,,-99.99,,2013-01-27 02:21:00,
2013-01-26 18:31:00,50.0,49.0,29.88,North,0,0.0,8.0,96,0.00,,,-99.99,,2013-01-27 02:31:00,
2013-01-26 18:41:00,50.0,49.0,29.88,North,0,0.0,8.0,96,0.00,,,-99.99,,2013-01-27 02:41:00,
2013-01-26 18:52:00,50.0,49.0,29.88,North,0,0.0,8.0,96,0.00,,,-99.99,,2013-01-27 02:52:00,
2013-01-26 19:21:00,49.0,48.0,29.89,North,0,0.0,3.0,96,0.02,,,-99.99,,2013-01-27 03:21:00,
2013-01-26 19:31:00,49.0,48.0,29.89,North,0,0.0,3.0,96,0.02,,,-99.99,,2013-01-27 03:31:00,
2013-01-26 19:41:00,49.0,48.0,29.89,North,0,0.0,3.0,96,0.02,,,-99.99,,2013-01-27 03:41:00,
2013-01-26 19:51:00,49.0,48.0,29.89,North,0,0.0,3.0,96,0.02,,,-99.99,,2013-01-27 03:51:00,
2013-01-26 20:21:00,49.0,48.0,29.90,North,0,0.0,3.0,96,0.00,,,-99.99,,2013-01-27 04:21:00,
2013-01-26 20:31:00,49.0,48.0,29.90,North,0,0.0,3.0,96,0.00,,,-99.99,,2013-01-27 04:31:00,
2013-01-26 20:41:00,49.0,48.0,29.90,North,0,0.0,3.0,96,0.00,,,-99.99,,2013-01-27 04:41:00,
2013-01-26 20:51:00,49.0,48.0,29.90,North,0,0.0,3.0,96,0.00,,,-99.99,,2013-01-27 04:51:00,
2013-01-26 21:22:00,49.0,48.0,29.90,North,-999,0.0,0.0,96,0.00,,,-99.99,,2013-01-27 05:22:00,
2013-01-26 21:32:00,49.0,48.0,29.90,North,-999,0.0,0.0,96,0.00,,,-99.99,,2013-01-27 05:32:00,
2013-01-26 21:41:00,49.0,48.0,29.90,North,-999,0.0,0.0,96,0.00,,,-99.99,,2013-01-27 05:41:00,
2013-01-26 21:52:00,49.0,48.0,29.90,North,-999,0.0,0.0,96,0.00,,,-99.99,,2013-01-27 05:52:00,
2013-01-26 22:21:00,49.0,48.0,29.92,West,270,7.0,11.0,96,0.00,,,-99.99,,2013-01-27 06:21:00,
2013-01-26 22:31:00,49.0,48.0,29.92,West,270,7.0,11.0,96,0.00,,,-99.99,,2013-01-27 06:31:00,
2013-01-26 22:41:00,49.0,48.0,29.92,West,270,7.0,11.0,96,0.00,,,-99.99,,2013-01-27 06:41:00,
2013-01-26 22:51:00,49.0,48.0,29.92,West,270,7.0,11.0,96,0.00,,,-99.99,,2013-01-27 06:51:00,
2013-01-26 23:21:00,48.0,47.0,29.92,West,260,5.0,10.0,96,0.02,,,-99.99,,2013-01-27 07:21:00,
2013-01-26 23:31:00,48.0,47.0,29.92,West,260,5.0,10.0,96,0.02,,,-99.99,,2013-01-27 07:31:00,
2013-01-26 23:41:00,48.0,47.0,29.92,West,260,5.0,10.0,96,0.02,,,-99.99,,2013-01-27 07:41:00,
2013-01-26 23:51:00,48.0,47.0,29.92,West,260,5.0,10.0,96,0.02,,,-99.99,,2013-01-27 07:51:00,